Tracking 25734 objects as of 27-May-2022
HD Live streaming from Space Station
objects crossing your sky now

BEIDOU 3M18

Track BEIDOU 3M18 now!
BEIDOU 3M18 is classified as:


NORAD ID: 43707
Int'l Code: 2018-093B
Perigee: 21,514.1 km
Apogee: 21,556.0 km
Inclination: 54.4 °
Period: 773.2 minutes
Semi major axis: 27906 km
RCS: Unknown
Launch date: November 18, 2018
Source: People's Republic of China (PRC)
Launch site: Xichang Space Center, China (XSC)
aabbcc
Your satellite tracking list
Your tracking list is empty




NASA's NSSDC Master Catalog

Two Line Element Set (TLE):
1 43707U 18093B   22146.64437553 -.00000019  00000-0  00000-0 0  9995
2 43707  54.3641 232.7054 0007516 299.5661  58.9730  1.86232217 23915
Source of the keplerian elements: AFSPC